Location: Jaworzyna Śląska
(50.9128°N, 16.4318°E)
Time: 07:17:53
(UTC+02:00)

ISS - Visible Passes

Search period start: 27 May 2018 00:00
Search period end: 06 June 2018 00:00
Orbit: 402 x 407 km, 51.6° (Epoch: 27 May)

Date Brightness Start Highest point End Pass type
(mag) Time Alt. Az. Time Alt. Az. Time Alt. Az.
27 May -4.0 00:22:44 10° WNW 00:26:00 69° SSW 00:26:26 58° SSE visible
27 May -3.7 21:53:58 10° W 21:57:15 81° N 22:00:32 10° E visible
27 May -3.9 23:30:31 10° W 23:33:48 88° SSW 23:35:43 23° ESE visible
28 May -1.9 01:07:11 10° W 01:08:21 18° W 01:08:21 18° W visible
28 May -3.8 22:38:18 10° W 22:41:35 80° N 22:44:51 10° E visible
29 May -3.3 00:14:51 10° W 00:17:42 42° SW 00:17:42 42° SW visible
29 May -3.6 21:46:03 10° W 21:49:20 76° N 21:52:37 10° E visible
29 May -3.8 23:22:35 10° WNW 23:25:50 62° SSW 23:27:06 32° SE visible
30 May -1.2 00:59:42 10° W 00:59:43 10° W 00:59:43 10° W visible
30 May -3.9 22:30:20 10° WNW 22:33:37 81° SSW 22:36:31 13° ESE visible
31 May -2.3 00:07:03 10° W 00:09:09 23° SW 00:09:09 23° SW visible
31 May -3.8 21:38:04 10° W 21:41:22 84° N 21:44:39 10° E visible
31 May -3.2 23:14:38 10° W 23:17:42 37° SSW 23:18:35 30° S visible
01 Jun -3.6 22:22:19 10° W 22:25:32 54° SSW 22:28:03 15° SE visible
01 Jun -1.5 23:59:41 10° WSW 00:00:41 13° WSW 00:00:41 13° WSW visible
02 Jun -2.3 23:06:50 10° W 23:09:26 22° SW 23:10:11 20° SSW visible
03 Jun -2.8 22:14:20 10° W 22:17:19 32° SSW 22:19:41 14° SSE visible
04 Jun -1.5 22:59:43 10° WSW 23:00:59 12° SW 23:01:52 11° SSW visible
05 Jun -1.9 22:06:34 10° W 22:08:56 19° SW 22:11:18 10° S visible
